• In Hungary
  • List of Countries
  • For 7 days
  • Water Temperature
  • Satellite Maps
  • Weather Map
  • News
  • Weather Widgets
  • user-avatar
    Login

    Hourly Weather Miskolc

    Today, 19 November, Sunday

    Time Temperature Precipitation Wind Pressure Humidity
    00:00 +2°C° 0 mm 3 mps 747 mmHg 85%
    01:00 +1°C° 0 mm 5 mps 746 mmHg 78%
    02:00 +1°C° 0 mm 4 mps 746 mmHg 80%
    03:00 +1°C° 0 mm 4 mps 746 mmHg 82%
    04:00 +2°C° 0 mm 3 mps 746 mmHg 83%
    05:00 +2°C° 0 mm 3 mps 746 mmHg 84%
    06:00 +1°C° 0 mm 3 mps 746 mmHg 85%
    07:00 +1°C° 0 mm 3 mps 746 mmHg 86%
    08:00 +2°C° 0 mm 3 mps 746 mmHg 81%
    09:00 +3°C° 0 mm 3 mps 746 mmHg 76%
    10:00 +4°C° 0 mm 3 mps 746 mmHg 71%
    11:00 +5°C° 0 mm 4 mps 746 mmHg 69%
    12:00 +5°C° 0 mm 4 mps 745 mmHg 66%
    13:00 +6°C° 0 mm 4 mps 745 mmHg 64%
    14:00 +5°C° 0.1 mm 4 mps 745 mmHg 68%
    15:00 +5°C° 0.1 mm 4 mps 745 mmHg 72%
    16:00 +4°C° 0.1 mm 3 mps 745 mmHg 77%
    17:00 +4°C° 0.2 mm 3 mps 745 mmHg 79%
    18:00 +3°C° 0.2 mm 4 mps 745 mmHg 81%
    19:00 +3°C° 0.2 mm 4 mps 745 mmHg 83%
    20:00 +3°C° 0 mm 4 mps 745 mmHg 84%
    21:00 +2°C° 0 mm 3 mps 745 mmHg 85%
    22:00 +1°C° 0 mm 3 mps 745 mmHg 86%
    23:00 +1°C° 0 mm 3 mps 745 mmHg 85%

    Tomorrow, 20 November, Monday

    Time Temperature Precipitation Wind Pressure Humidity
    00:00 +1°C° 0 mm 3 mps 745 mmHg 85%
    01:00 0°C° 0 mm 4 mps 745 mmHg 84%
    02:00 0°C° 0 mm 4 mps 745 mmHg 83%
    03:00 0°C° 0 mm 4 mps 746 mmHg 83%
    04:00 0°C° 0 mm 4 mps 746 mmHg 82%
    05:00 0°C° 0 mm 4 mps 746 mmHg 82%
    06:00 0°C° 0 mm 4 mps 746 mmHg 81%
    07:00 +1°C° 0 mm 3 mps 747 mmHg 81%
    08:00 +1°C° 0 mm 4 mps 747 mmHg 74%
    09:00 +2°C° 0 mm 5 mps 747 mmHg 66%
    10:00 +3°C° 0 mm 5 mps 748 mmHg 59%
    11:00 +5°C° 0 mm 5 mps 748 mmHg 55%
    12:00 +5°C° 0 mm 5 mps 748 mmHg 52%
    13:00 +6°C° 0 mm 5 mps 748 mmHg 49%
    14:00 +5°C° 0 mm 4 mps 748 mmHg 53%
    15:00 +4°C° 0 mm 3 mps 748 mmHg 58%
    16:00 +3°C° 0 mm 3 mps 748 mmHg 63%
    17:00 +3°C° 0 mm 3 mps 748 mmHg 66%
    18:00 +3°C° 0 mm 3 mps 748 mmHg 70%
    19:00 +2°C° 0 mm 3 mps 748 mmHg 74%
    20:00 +2°C° 0 mm 3 mps 748 mmHg 75%
    21:00 +2°C° 0 mm 3 mps 748 mmHg 76%
    22:00 +2°C° 0 mm 3 mps 748 mmHg 77%
    23:00 +2°C° 0.1 mm 3 mps 748 mmHg 78%

    Day after tomorrow, 21 November, Tuesday

    Time Temperature Precipitation Wind Pressure Humidity
    00:00 +2°C° 0.1 mm 3 mps 748 mmHg 79%
    01:00 +2°C° 0.1 mm 3 mps 747 mmHg 80%
    02:00 +1°C° 0.4 mm 4 mps 747 mmHg 81%
    03:00 +1°C° 0.4 mm 4 mps 746 mmHg 82%
    04:00 +1°C° 0.4 mm 4 mps 746 mmHg 82%
    05:00 +2°C° 0.3 mm 5 mps 745 mmHg 83%
    06:00 +2°C° 0.3 mm 5 mps 745 mmHg 83%
    07:00 +2°C° 0.3 mm 5 mps 744 mmHg 83%
    08:00 +3°C° 0.1 mm 5 mps 744 mmHg 81%
    09:00 +5°C° 0.1 mm 5 mps 744 mmHg 79%
    10:00 +4°C° 0.1 mm 6 mps 744 mmHg 77%
    11:00 +5°C° 0 mm 6 mps 744 mmHg 76%
    12:00 +7°C° 0 mm 6 mps 744 mmHg 74%
    13:00 +8°C° 0 mm 6 mps 744 mmHg 73%
    14:00 +8°C° 0.1 mm 5 mps 744 mmHg 76%
    15:00 +7°C° 0.1 mm 5 mps 744 mmHg 80%
    16:00 +7°C° 0.1 mm 4 mps 745 mmHg 83%
    17:00 +7°C° 0.1 mm 4 mps 745 mmHg 84%
    18:00 +7°C° 0.1 mm 4 mps 745 mmHg 85%
    19:00 +7°C° 0.1 mm 4 mps 745 mmHg 86%
    20:00 +7°C° 0 mm 4 mps 745 mmHg 86%
    21:00 +7°C° 0 mm 4 mps 745 mmHg 86%
    22:00 +6°C° 0 mm 4 mps 746 mmHg 86%
    23:00 +7°C° 0 mm 3 mps 746 mmHg 87%

    22 November, Wednesday

    Time Temperature Precipitation Wind Pressure Humidity
    00:00 +7°C° 0 mm 3 mps 746 mmHg 88%
    01:00 +5°C° 0 mm 3 mps 746 mmHg 89%
    02:00 +6°C° 0 mm 2 mps 746 mmHg 90%
    03:00 +6°C° 0 mm 2 mps 746 mmHg 91%
    04:00 +6°C° 0 mm 2 mps 746 mmHg 91%
    05:00 +6°C° 0 mm 2 mps 747 mmHg 92%
    06:00 +7°C° 0 mm 1 mps 747 mmHg 93%
    07:00 +6°C° 0 mm 1 mps 747 mmHg 93%
    08:00 +7°C° 0 mm 1 mps 748 mmHg 90%
    09:00 +8°C° 0 mm 1 mps 748 mmHg 87%
    10:00 +8°C° 0 mm 2 mps 748 mmHg 84%
    11:00 +9°C° 0 mm 2 mps 748 mmHg 82%
    12:00 +9°C° 0 mm 2 mps 748 mmHg 80%
    13:00 +10°C° 0 mm 3 mps 748 mmHg 78%
    14:00 +9°C° 0 mm 3 mps 748 mmHg 80%
    15:00 +9°C° 0 mm 3 mps 748 mmHg 82%
    16:00 +8°C° 0 mm 3 mps 748 mmHg 84%
    17:00 +8°C° 0 mm 2 mps 749 mmHg 85%
    18:00 +7°C° 0 mm 2 mps 749 mmHg 86%
    19:00 +7°C° 0 mm 2 mps 749 mmHg 87%
    20:00 +6°C° 0 mm 2 mps 749 mmHg 88%
    21:00 +6°C° 0 mm 2 mps 749 mmHg 90%
    22:00 +6°C° 0 mm 2 mps 750 mmHg 91%
    23:00 +6°C° 0 mm 2 mps 750 mmHg 91%

    23 November, Thursday

    Time Temperature Precipitation Wind Pressure Humidity
    00:00 +5°C° 0 mm 2 mps 750 mmHg 91%
    01:00 +6°C° 0 mm 1 mps 750 mmHg 92%
    02:00 +6°C° 0 mm 1 mps 750 mmHg 92%
    03:00 +6°C° 0 mm 1 mps 750 mmHg 92%
    04:00 +5°C° 0 mm 1 mps 751 mmHg 92%
    05:00 +5°C° 0 mm 1 mps 751 mmHg 93%
    06:00 +5°C° 0 mm 1 mps 751 mmHg 93%
    07:00 +5°C° 0 mm 1 mps 752 mmHg 94%
    08:00 +6°C° 0 mm 1 mps 752 mmHg 91%
    09:00 +7°C° 0 mm 1 mps 752 mmHg 89%
    10:00 +7°C° 0 mm 2 mps 753 mmHg 86%
    11:00 +8°C° 0 mm 2 mps 753 mmHg 84%
    12:00 +9°C° 0 mm 2 mps 753 mmHg 82%
    13:00 +9°C° 0 mm 2 mps 752 mmHg 81%
    14:00 +10°C° 0 mm 1 mps 752 mmHg 83%
    15:00 +9°C° 0 mm 1 mps 753 mmHg 86%
    16:00 +9°C° 0 mm 1 mps 753 mmHg 89%
    17:00 +8°C° 0 mm 1 mps 753 mmHg 89%
    18:00 +8°C° 0 mm 1 mps 753 mmHg 89%
    19:00 +8°C° 0 mm 1 mps 753 mmHg 90%
    20:00 +8°C° 0 mm 1 mps 753 mmHg 89%
    21:00 +8°C° 0 mm 1 mps 754 mmHg 89%
    22:00 +7°C° 0 mm 1 mps 754 mmHg 89%
    23:00 +7°C° 0 mm 1 mps 754 mmHg 89%

    24 November, Friday

    Time Temperature Precipitation Wind Pressure Humidity
    00:00 +7°C° 0 mm 1 mps 754 mmHg 89%
    01:00 +7°C° 0 mm 1 mps 754 mmHg 89%
    02:00 +7°C° 0 mm 1 mps 754 mmHg 89%
    03:00 +7°C° 0 mm 1 mps 754 mmHg 89%
    04:00 +7°C° 0 mm 1 mps 754 mmHg 89%
    05:00 +6°C° 0 mm 1 mps 754 mmHg 89%
    06:00 +6°C° 0 mm 1 mps 754 mmHg 90%
    07:00 +6°C° 0 mm 1 mps 754 mmHg 90%
    08:00 +7°C° 0 mm 1 mps 754 mmHg 87%
    09:00 +8°C° 0 mm 1 mps 754 mmHg 83%
    10:00 +9°C° 0 mm 1 mps 755 mmHg 80%
    11:00 +9°C° 0 mm 1 mps 754 mmHg 78%
    12:00 +10°C° 0 mm 1 mps 754 mmHg 76%
    13:00 +11°C° 0 mm 1 mps 754 mmHg 75%
    14:00 +10°C° 0 mm 1 mps 754 mmHg 78%
    15:00 +9°C° 0 mm 1 mps 754 mmHg 81%
    16:00 +9°C° 0 mm 1 mps 754 mmHg 84%
    17:00 +9°C° 0 mm 1 mps 754 mmHg 86%
    18:00 +8°C° 0 mm 1 mps 754 mmHg 87%
    19:00 +8°C° 0 mm 1 mps 754 mmHg 88%
    20:00 +8°C° 0 mm 1 mps 754 mmHg 88%
    21:00 +8°C° 0 mm 1 mps 754 mmHg 88%
    22:00 +8°C° 0 mm 1 mps 754 mmHg 88%
    23:00 +8°C° 0 mm 1 mps 754 mmHg 88%
    Show more